Location: Catstown
(52.4386°N, 7.2633°W)
Time: 12:01:06
(UTC+00:00)

Okean 2 Rocket - Pass Details

Date: 18 September 2020
Orbit: 616 x 642 km, 82.5° (Epoch: 23 October)

Event Time Altitude Azimuth Distance (km) Brightness Sun altitude
Rises 19:41:35 0° 172° (S) 2,934 6.3 -10.7°
Reaches altitude 10° 19:43:53 10° 166° (SSE) 2,027 5.4 -11.0°
Maximum altitude 19:48:11 46° 94° (E) 855 3.4 -11.6°
Drops below altitude 10° 19:52:30 10° 21° (NNE) 2,030 5.7 -12.2°
Sets 19:54:48 0° 16° (NNE) 2,938 6.6 -12.6°
